• In Uzbekistan
  • List of Countries
  • For 7 days
  • Water Temperature
  • Satellite Maps
  • Weather Map
  • Weather Widgets
  • user-avatar
    Login

    Hourly Weather Sokoliki

    Today, 10 December, Monday

    Time Temperature Precipitation Wind Pressure Humidity
    00:00 -2°C° 0.1 mm 3 mps 690 mmHg 90%
    01:00 -1°C° 0.1 mm 3 mps 690 mmHg 90%
    02:00 -1°C° 0 mm 2 mps 690 mmHg 91%
    03:00 -1°C° 0.2 mm 2 mps 690 mmHg 91%
    04:00 -1°C° 0.2 mm 2 mps 690 mmHg 90%
    05:00 -1°C° 0.2 mm 2 mps 690 mmHg 90%
    06:00 -1°C° 0.4 mm 2 mps 690 mmHg 91%
    07:00 -2°C° 0.4 mm 2 mps 690 mmHg 91%
    08:00 -2°C° 0 mm 2 mps 690 mmHg 92%
    09:00 -1°C° 0.3 mm 2 mps 691 mmHg 90%
    10:00 -1°C° 0.3 mm 2 mps 691 mmHg 88%
    11:00 -1°C° 0.3 mm 2 mps 692 mmHg 86%
    12:00 +1°C° 0.1 mm 2 mps 692 mmHg 86%
    13:00 0°C° 0.1 mm 3 mps 692 mmHg 85%
    14:00 0°C° 0.1 mm 3 mps 693 mmHg 84%
    15:00 -1°C° 0.1 mm 2 mps 693 mmHg 86%
    16:00 -1°C° 0.1 mm 2 mps 693 mmHg 88%
    17:00 -2°C° 0.1 mm 2 mps 693 mmHg 90%
    18:00 -2°C° 0.1 mm 2 mps 694 mmHg 90%
    19:00 -3°C° 0.1 mm 2 mps 694 mmHg 91%
    20:00 -3°C° 0.1 mm 2 mps 694 mmHg 91%
    21:00 -3°C° 0 mm 2 mps 694 mmHg 91%
    22:00 -4°C° 0 mm 2 mps 694 mmHg 92%
    23:00 -4°C° 0 mm 2 mps 694 mmHg 92%

    Tomorrow, 11 December, Tuesday

    Time Temperature Precipitation Wind Pressure Humidity
    00:00 -2°C° 0 mm 1 mps 695 mmHg 92%
    01:00 -2°C° 0 mm 1 mps 695 mmHg 91%
    02:00 -2°C° 0 mm 1 mps 695 mmHg 91%
    03:00 -2°C° 0 mm 1 mps 695 mmHg 91%
    04:00 -2°C° 0 mm 1 mps 695 mmHg 91%
    05:00 -2°C° 0 mm 1 mps 695 mmHg 92%
    06:00 -3°C° 0 mm 1 mps 695 mmHg 91%
    07:00 -3°C° 0 mm 1 mps 695 mmHg 91%
    08:00 -3°C° 0 mm 1 mps 695 mmHg 91%
    09:00 -2°C° 0 mm 1 mps 696 mmHg 86%
    10:00 -1°C° 0 mm 1 mps 696 mmHg 82%
    11:00 0°C° 0 mm 1 mps 696 mmHg 78%
    12:00 -2°C° 0 mm 2 mps 696 mmHg 76%
    13:00 -2°C° 0 mm 2 mps 696 mmHg 75%
    14:00 -1°C° 0 mm 2 mps 696 mmHg 74%
    15:00 -2°C° 0 mm 2 mps 696 mmHg 79%
    16:00 -3°C° 0 mm 2 mps 696 mmHg 83%
    17:00 -4°C° 0 mm 2 mps 696 mmHg 87%
    18:00 -4°C° 0 mm 2 mps 696 mmHg 88%
    19:00 -4°C° 0 mm 2 mps 696 mmHg 89%
    20:00 -4°C° 0 mm 2 mps 696 mmHg 90%
    21:00 -4°C° 0 mm 2 mps 696 mmHg 89%
    22:00 -4°C° 0 mm 2 mps 697 mmHg 89%
    23:00 -4°C° 0 mm 2 mps 697 mmHg 89%

    Day after tomorrow, 12 December, Wednesday

    Time Temperature Precipitation Wind Pressure Humidity
    00:00 -4°C° 0 mm 2 mps 697 mmHg 90%
    01:00 -2°C° 0 mm 1 mps 697 mmHg 91%
    02:00 -3°C° 0 mm 1 mps 697 mmHg 92%
    03:00 -3°C° 0 mm 1 mps 697 mmHg 92%
    04:00 -3°C° 0 mm 1 mps 697 mmHg 92%
    05:00 -3°C° 0 mm 1 mps 697 mmHg 92%
    06:00 -3°C° 0.1 mm 0 mps 697 mmHg 91%
    07:00 -3°C° 0.1 mm 0 mps 697 mmHg 91%
    08:00 -3°C° 0.1 mm 0 mps 697 mmHg 90%
    09:00 -3°C° 0 mm 0 mps 698 mmHg 87%
    10:00 -2°C° 0 mm 0 mps 698 mmHg 84%
    11:00 0°C° 0 mm 1 mps 698 mmHg 82%
    12:00 0°C° 0 mm 1 mps 698 mmHg 80%
    13:00 0°C° 0 mm 1 mps 698 mmHg 79%
    14:00 0°C° 0 mm 1 mps 698 mmHg 78%
    15:00 -1°C° 0 mm 1 mps 698 mmHg 81%
    16:00 -1°C° 0 mm 1 mps 698 mmHg 85%
    17:00 -2°C° 0 mm 1 mps 698 mmHg 88%
    18:00 -2°C° 0 mm 1 mps 698 mmHg 90%
    19:00 -5°C° 0 mm 2 mps 698 mmHg 91%
    20:00 -5°C° 0 mm 2 mps 698 mmHg 92%
    21:00 -5°C° 0 mm 2 mps 698 mmHg 91%
    22:00 -5°C° 0 mm 2 mps 698 mmHg 90%
    23:00 -5°C° 0 mm 2 mps 698 mmHg 89%

    13 December, Thursday

    Time Temperature Precipitation Wind Pressure Humidity
    00:00 -5°C° 0.1 mm 2 mps 698 mmHg 89%
    01:00 -6°C° 0.1 mm 3 mps 698 mmHg 89%
    02:00 -6°C° 0.1 mm 3 mps 698 mmHg 89%
    03:00 -6°C° 0.2 mm 3 mps 698 mmHg 90%
    04:00 -6°C° 0.2 mm 3 mps 698 mmHg 90%
    05:00 -6°C° 0.2 mm 3 mps 698 mmHg 90%
    06:00 -6°C° 0.3 mm 3 mps 697 mmHg 91%
    07:00 -6°C° 0.3 mm 3 mps 697 mmHg 91%
    08:00 -6°C° 0.3 mm 3 mps 697 mmHg 91%
    09:00 -6°C° 0.3 mm 3 mps 697 mmHg 89%
    10:00 -6°C° 0.3 mm 3 mps 697 mmHg 88%
    11:00 -5°C° 0.3 mm 3 mps 697 mmHg 87%
    12:00 -5°C° 0.2 mm 3 mps 697 mmHg 86%
    13:00 -5°C° 0.2 mm 3 mps 697 mmHg 85%
    14:00 -5°C° 0.2 mm 3 mps 697 mmHg 85%
    15:00 -5°C° 0.2 mm 3 mps 697 mmHg 87%
    16:00 -4°C° 0.2 mm 2 mps 697 mmHg 89%
    17:00 -4°C° 0.2 mm 2 mps 698 mmHg 91%
    18:00 -5°C° 0.2 mm 2 mps 698 mmHg 91%
    19:00 -5°C° 0.2 mm 2 mps 698 mmHg 92%
    20:00 -5°C° 0.2 mm 2 mps 698 mmHg 92%
    21:00 -5°C° 0.1 mm 2 mps 699 mmHg 92%
    22:00 -5°C° 0.1 mm 2 mps 699 mmHg 93%
    23:00 -5°C° 0.1 mm 2 mps 699 mmHg 93%

    14 December, Friday

    Time Temperature Precipitation Wind Pressure Humidity
    00:00 -5°C° 0.1 mm 2 mps 700 mmHg 93%
    01:00 -5°C° 0.1 mm 2 mps 700 mmHg 93%
    02:00 -3°C° 0.1 mm 1 mps 700 mmHg 94%
    03:00 -3°C° 0 mm 1 mps 700 mmHg 94%
    04:00 -3°C° 0 mm 1 mps 701 mmHg 94%
    05:00 -3°C° 0 mm 1 mps 701 mmHg 94%
    06:00 -3°C° 0.1 mm 1 mps 701 mmHg 94%
    07:00 -3°C° 0.1 mm 1 mps 702 mmHg 94%
    08:00 -3°C° 0.1 mm 1 mps 702 mmHg 94%
    09:00 -3°C° 0 mm 1 mps 703 mmHg 91%
    10:00 -2°C° 0 mm 1 mps 703 mmHg 89%
    11:00 -2°C° 0 mm 1 mps 704 mmHg 86%
    12:00 -1°C° 0 mm 1 mps 704 mmHg 85%
    13:00 -1°C° 0 mm 1 mps 705 mmHg 83%
    14:00 -1°C° 0 mm 1 mps 705 mmHg 82%
    15:00 -1°C° 0 mm 1 mps 705 mmHg 85%
    16:00 -3°C° 0 mm 0 mps 705 mmHg 88%
    17:00 -4°C° 0 mm 0 mps 705 mmHg 91%
    18:00 -4°C° 0 mm 0 mps 706 mmHg 92%
    19:00 -4°C° 0 mm 0 mps 706 mmHg 92%
    20:00 -5°C° 0 mm 0 mps 706 mmHg 93%
    21:00 -5°C° 0 mm 0 mps 707 mmHg 93%
    22:00 -5°C° 0 mm 0 mps 707 mmHg 93%
    23:00 -5°C° 0 mm 0 mps 707 mmHg 93%

    15 December, Saturday

    Time Temperature Precipitation Wind Pressure Humidity
    00:00 -6°C° 0 mm 0 mps 707 mmHg 93%
    01:00 -6°C° 0 mm 0 mps 707 mmHg 92%
    02:00 -6°C° 0 mm 0 mps 707 mmHg 92%
    03:00 -6°C° 0 mm 0 mps 708 mmHg 92%
    04:00 -6°C° 0 mm 0 mps 708 mmHg 92%
    05:00 -6°C° 0 mm 0 mps 708 mmHg 92%
    06:00 -6°C° 0 mm 0 mps 708 mmHg 92%
    07:00 -6°C° 0 mm 0 mps 708 mmHg 92%
    08:00 -6°C° 0 mm 1 mps 709 mmHg 92%
    09:00 -4°C° 0 mm 1 mps 709 mmHg 89%
    10:00 -3°C° 0 mm 1 mps 710 mmHg 86%
    11:00 -2°C° 0 mm 1 mps 710 mmHg 83%
    12:00 -2°C° 0 mm 1 mps 710 mmHg 82%
    13:00 -1°C° 0 mm 1 mps 710 mmHg 81%
    14:00 -1°C° 0 mm 1 mps 710 mmHg 80%
    15:00 -2°C° 0 mm 1 mps 710 mmHg 83%
    16:00 -3°C° 0 mm 1 mps 710 mmHg 87%
    17:00 -3°C° 0 mm 1 mps 710 mmHg 91%
    18:00 -4°C° 0 mm 1 mps 710 mmHg 92%
    19:00 -4°C° 0 mm 1 mps 710 mmHg 93%
    20:00 -4°C° 0 mm 1 mps 710 mmHg 94%
    21:00 -6°C° 0 mm 1 mps 710 mmHg 94%
    22:00 -6°C° 0 mm 1 mps 710 mmHg 93%
    23:00 -6°C° 0 mm 1 mps 710 mmHg 93%
    Show more